Vertical_Velocity
3 3 3 2 2 2 1 1 1 1 1 1 1 1 1 1 1 0 -0 0 -0 -1 -1 -1 -1 -1 -0 -0 0 0 0 0 1 1 2 2 1 1 1 2 2 1 1 1 1 1 1 1 2 3 3 3 3 2 2 1 1 0 -1 -1 -1 -0 0 1 -0 -0 -1 -1 -2
3 2 2 2 2 2 2 1 1 1 1 1 1 1 1 1 1 0 -0 -0 -0 -1 -1 -1 -1 -1 -0 -0 0 1 1 1 1 1 1 2 2 2 2 2 2 2 2 2 1 1 1 1 2 2 3 3 3 3 2 -0 0 -0 -1 -2 -1 -0 1 1 -0 -1 -1 -1 -2
2 2 3 3 3 2 2 1 1 1 1 1 1 1 1 1 1 0 -0 -0 -0 -0 -1 -2 -2 -1 -1 -0 0 1 1 1 1 1 2 2 2 2 2 2 2 2 2 2 2 1 1 1 2 3 3 3 3 2 1 -1 -1 -0 -0 -1 -1 -0 0 0 -1 -1 -1 -2 -2
3 3 3 3 2 2 1 0 0 1 1 1 1 1 2 1 1 0 0 -0 0 -0 -1 -2 -2 -2 -1 -1 -0 0 1 1 2 2 2 2 2 2 2 2 2 2 2 2 2 1 1 1 2 3 3 3 2 1 -0 -1 -1 -1 -1 -1 -0 0 0 -1 -1 -1 -1 -1 -1
3 3 3 2 2 1 1 1 1 1 1 1 2 2 2 1 1 1 1 1 1 -0 -1 -1 -1 -2 -2 -1 -0 -0 0 1 2 2 2 2 2 2 2 2 2 2 2 2 2 1 1 2 2 2 2 1 1 -0 -1 -1 -1 -1 -1 -1 -0 0 -0 -0 -1 -1 -1 -1 -1
2 2 2 2 2 2 2 2 1 1 1 1 2 2 2 1 1 2 2 1 0 -0 -0 -0 -1 -2 -2 -1 -1 -0 0 1 2 3 3 2 2 2 2 2 2 2 2 1 1 1 2 2 2 2 2 1 1 0 -1 -0 -0 -1 -1 -0 -1 -0 -0 -0 -1 -1 -0 -0 0
2 2 2 2 2 2 2 1 1 1 1 2 3 2 1 1 2 2 2 1 1 1 0 -0 -0 -1 -1 -1 -1 -1 -0 1 2 3 3 3 2 2 2 2 2 2 2 1 1 1 1 2 3 3 2 2 2 1 -0 -0 0 0 0 -0 -1 -0 1 0 -0 -0 0 0 2
2 2 2 2 2 2 2 1 1 2 2 3 3 2 2 2 2 2 2 2 2 1 1 1 0 -0 -1 -0 -1 -1 -0 0 1 2 3 3 2 2 2 2 2 2 2 1 1 1 1 2 3 2 2 2 2 1 0 0 1 1 1 0 -0 0 1 1 1 1 1 2 2
2 2 2 2 2 2 2 1 2 2 3 3 3 2 2 2 3 3 3 3 2 1 1 2 1 1 0 0 -0 -1 -0 0 1 2 2 2 2 2 2 2 3 2 2 1 1 1 0 1 1 1 1 1 1 1 1 1 2 2 2 1 1 1 1 1 1 1 1 2 2
2 1 1 1 1 1 1 2 2 3 4 3 3 2 2 3 3 3 2 2 2 2 2 2 1 1 1 1 0 -0 -0 0 1 1 1 1 2 2 2 2 2 2 2 1 0 0 0 -0 -0 -0 -0 0 1 2 2 3 3 3 3 2 2 2 1 -0 0 1 1 2 1
1 1 1 1 1 1 1 2 3 3 4 4 3 2 2 3 2 2 2 2 3 3 2 1 2 2 2 1 0 -0 -0 0 1 1 1 1 1 2 2 2 2 2 1 0 -0 -0 -0 -1 -1 -1 -1 0 1 2 3 3 4 4 3 2 1 1 0 -1 -1 0 1 1 1
0 0 0 1 1 1 1 2 3 3 3 3 3 2 2 2 2 2 2 3 3 2 1 1 2 2 2 1 0 0 0 0 0 1 1 1 1 2 2 2 2 1 1 -0 -1 -1 -1 -1 -1 -1 -0 -0 1 2 2 2 2 2 1 0 -0 -1 -1 -1 -1 -0 0 1 1
-0 -0 0 1 1 1 2 2 2 3 3 3 2 2 2 1 1 2 2 3 2 1 1 1 2 2 2 1 0 0 0 0 1 1 1 1 2 2 3 2 2 1 1 0 -0 -0 -0 -1 -0 -0 0 -0 0 1 1 1 1 0 -0 -1 -2 -2 -2 -1 -1 -0 -0 -0 0
-0 0 0 1 1 1 2 2 2 2 3 3 2 1 1 1 1 2 2 2 2 1 1 1 1 1 1 1 0 0 0 1 1 1 1 1 2 2 2 2 2 2 1 1 0 -0 -0 -0 -0 -0 -0 -0 -0 -0 -0 0 0 -0 -1 -1 -1 -2 -1 -1 -1 -0 -0 -0 -0
1 1 1 1 1 2 2 3 2 2 2 2 2 1 1 1 1 1 2 2 2 1 1 1 1 1 0 1 0 0 0 1 1 1 1 1 1 1 1 1 1 2 2 1 0 -0 -0 -0 -1 -0 -0 -0 -1 -1 -1 -0 0 0 -0 -0 -1 -1 -1 -1 -1 -1 -0 -0 -0
2 2 2 2 2 2 3 3 3 2 2 2 2 1 1 1 1 1 2 2 1 1 1 1 1 0 0 0 0 0 0 0 1 1 1 1 1 1 1 1 1 1 1 1 0 -0 -1 -1 -0 -0 -0 -0 -1 -1 -1 -0 -0 -0 -0 -1 -1 -1 -1 -1 -1 -1 -1 -1 0
2 2 2 2 3 3 4 4 3 3 3 2 2 1 1 1 1 2 2 2 2 2 2 1 1 1 1 0 -0 -0 -0 0 0 1 1 1 1 1 1 1 1 1 1 1 0 -0 -1 -1 -1 -0 -0 -0 -0 -0 -0 -0 -0 -0 -0 -1 -1 -1 -1 -1 -1 -1 -1 -1 -0
2 2 2 2 3 3 4 4 3 3 3 2 2 1 1 2 2 2 2 2 2 2 2 1 1 1 1 1 -0 -0 -0 -0 -0 -0 0 0 0 1 1 1 1 1 1 1 0 -0 -0 -1 -1 -1 -0 -0 -0 -0 0 0 0 -0 -0 -1 -1 -1 -1 -1 -1 -1 -1 -0 -0
2 2 1 2 2 2 3 3 2 2 2 2 2 2 2 3 3 3 3 3 3 3 2 2 2 2 2 1 -0 -1 -1 -1 -1 -1 -1 -0 0 1 1 1 1 1 1 1 1 0 -0 -0 -0 -0 -0 -0 0 0 1 1 0 -0 -1 -1 -1 -1 -1 -1 -1 -1 -1 -0 0
2 2 2 1 1 2 2 2 2 2 2 2 2 3 3 3 3 4 4 3 3 3 3 3 3 3 2 1 0 -0 -1 -1 -1 -1 -1 -1 -0 0 0 1 1 2 2 2 1 0 -0 -0 -0 -0 -0 0 0 1 1 1 0 -0 -1 -1 -1 -1 -1 -1 -2 -2 -1 -0 1
2 2 2 1 1 1 1 1 1 1 1 2 3 3 4 3 4 4 4 3 2 3 3 4 4 3 2 1 0 -0 -1 -1 -1 -1 -2 -2 -1 -1 -0 1 2 2 2 2 1 0 -0 -1 -0 -0 0 1 1 1 1 0 -0 -1 -1 -1 -1 -1 -1 -1 -2 -2 -1 -0 1
2 1 1 1 2 2 2 2 1 1 1 2 3 3 3 3 3 3 3 2 2 3 3 4 3 3 2 1 0 -0 -1 -1 -1 -1 -2 -2 -2 -1 -0 1 2 3 2 1 -0 -0 -1 -1 -0 -0 1 1 1 1 1 0 -0 -1 -1 -1 -1 -1 -1 -2 -2 -1 -1 0 2
1 1 2 2 2 3 3 2 2 2 2 3 3 3 3 3 2 2 2 2 2 2 3 3 3 2 2 1 -0 -0 -0 -1 -1 -1 -2 -2 -2 -1 -0 1 2 2 1 -0 -0 -1 -1 -1 -0 0 1 2 2 1 1 -0 -0 -0 -0 -1 -1 -1 -2 -2 -2 -1 -0 1 2
0 1 2 2 3 3 3 3 2 2 3 3 3 3 3 2 2 2 2 2 2 2 2 2 2 2 2 1 1 0 -0 -0 -0 -1 -1 -1 -1 -0 -0 1 2 1 1 -0 -0 -1 -0 -0 0 1 1 2 2 1 1 -0 -0 -0 -0 -0 -1 -2 -2 -3 -2 -1 0 2 3
1 1 2 2 3 3 3 3 3 3 3 3 3 3 3 3 2 2 2 3 2 2 2 2 2 2 2 2 1 1 1 0 0 -0 -0 -1 -0 -0 0 1 1 1 1 0 -0 -0 -0 1 2 2 2 2 2 1 0 -0 -0 -0 -0 -0 -0 -1 -2 -3 -2 -1 1 3 4
1 2 2 2 2 3 3 3 3 3 3 3 3 3 3 3 3 3 3 3 3 2 2 2 2 2 2 2 2 1 1 0 0 -0 -0 -0 -0 -0 0 1 1 1 1 0 -0 0 1 1 2 3 3 3 2 1 1 -1 -0 -0 0 0 0 -0 -1 -1 -1 0 2 4 5
1 1 1 1 2 2 2 2 2 2 3 3 3 4 3 3 3 4 4 4 3 2 2 2 2 2 2 1 1 1 0 -0 -1 -1 -1 -1 -0 -0 0 1 1 1 1 0 0 1 1 2 2 2 2 3 2 2 1 0 0 1 1 1 1 1 1 1 2 4 5 5 5
1 1 1 1 2 2 1 1 1 1 2 2 2 3 3 3 4 4 4 4 3 3 2 2 2 1 1 1 1 0 -1 -1 -1 -1 -1 -0 0 0 1 1 1 0 -0 -0 0 1 1 1 1 1 2 3 3 2 2 2 1 1 1 1 2 2 3 5 6 7 7 6 5
-0 0 1 1 1 1 1 0 1 1 1 1 1 2 2 3 4 4 3 3 2 2 1 1 0 1 1 1 -0 -1 -1 -1 -1 -1 -1 -0 1 1 1 1 1 -0 -1 -0 1 1 2 1 1 1 2 2 2 1 1 1 1 1 1 1 2 4 5 7 7 7 6 5 3
0 0 1 1 1 1 0 0 -0 -0 0 0 1 2 2 3 3 2 2 1 1 -0 -0 -1 -0 0 0 -1 -1 -1 -1 -1 -2 -2 -1 -0 1 1 2 2 1 -0 -0 0 1 2 2 1 1 1 2 2 1 0 -0 -1 -0 0 1 1 2 3 4 5 4 4 3 2 1
0 1 1 1 1 1 1 0 0 0 1 1 1 2 2 2 2 2 1 1 0 -0 -0 0 -0 -1 -2 -2 -2 -2 -1 -2 -2 -2 -1 -1 -0 0 1 1 0 0 0 1 2 2 2 1 1 1 1 2 1 -0 -1 -2 -1 0 1 2 2 2 2 1 1 1 1 1 0
1 1 2 2 1 1 1 1 1 1 1 1 2 2 2 2 2 2 1 1 1 1 1 0 -0 -1 -1 -1 -1 -1 -1 -1 -1 -1 -2 -1 -1 -1 -1 -0 -0 0 1 2 2 2 1 1 1 1 2 2 1 -0 -1 -2 -1 0 1 2 1 1 1 1 1 1 1 1 1
1 2 2 2 2 1 1 1 1 1 1 1 1 2 2 1 2 2 2 2 2 1 1 0 -0 -0 -0 -0 -0 -0 -0 -0 -1 -1 -1 -1 -1 -1 -1 -1 -0 0 1 2 2 1 1 0 1 2 2 2 1 -0 -1 -1 -1 0 1 1 1 1 1 1 1 1 1 2 2
1 2 2 2 2 2 2 2 2 2 2 2 1 1 1 1 1 2 2 1 1 1 1 1 1 0 -0 -0 -0 -0 -0 -0 -0 -0 -0 -1 -1 -1 -1 -1 -1 -0 1 1 1 0 0 0 1 2 2 2 1 -0 -1 -1 -1 -0 0 1 1 1 1 1 1 2 2 3 3
2 2 2 2 2 2 2 2 2 2 2 2 1 1 1 2 2 2 2 1 2 2 2 2 1 0 0 0 0 0 0 0 -0 -0 -0 -0 -0 -0 -1 -1 -1 -0 0 0 -0 0 1 2 2 2 2 1 0 -0 -0 -1 -1 -0 -0 0 0 0 1 1 2 2 3 3 3
2 2 2 2 2 2 2 2 1 2 2 2 2 2 2 3 4 4 4 5 5 6 5 5 5 4 4 4 3 3 2 2 1 1 1 1 1 1 0 -0 -0 0 0 1 0 1 3 4 2 2 2 1 0 0 0 0 0 -0 -0 0 0 0 1 1 2 2 2 2 2
2 2 2 2 1 1 1 1 2 2 1 1 2 2 2 3 3 4 4 4 4 5 5 6 6 7 7 7 7 7 6 6 6 5 4 4 4 4 4 5 5 4 4 3 3 4 4 3 2 2 2 1 1 1 2 2 1 1 1 0 0 0 0 1 1 1 2 1 1
2 2 2 2 1 1 1 1 1 2 1 1 1 1 2 2 1 1 1 1 0 0 1 1 1 2 2 3 3 4 5 5 5 5 5 6 7 8 10 11 11 10 8 6 5 6 6 6 4 3 2 3 3 3 3 3 2 2 1 1 1 0 0 0 1 1 1 1 1
1 2 2 1 1 1 1 1 1 1 1 1 1 1 1 1 1 0 0 -0 -0 -0 -0 -1 -1 -1 -1 -0 -0 0 0 -0 0 1 1 2 3 4 6 6 6 5 4 3 2 3 4 5 3 2 2 3 3 4 4 4 3 2 2 2 1 1 1 1 1 1 0 0 -0
1 1 1 1 1 1 1 1 1 1 2 2 2 2 2 1 1 1 1 1 1 1 0 -0 -1 -1 -1 -0 -0 -0 -0 -1 -1 -1 -1 -1 -1 -1 -1 -0 -1 -1 -1 -0 -0 1 2 2 -0 -0 1 2 2 3 3 3 3 2 2 2 2 2 2 2 2 0 -1 -1 -1
1 1 1 1 1 1 1 1 2 2 2 2 2 2 2 2 1 1 1 1 1 1 1 1 1 1 1 1 1 1 1 1 0 0 -0 -0 -0 -0 -0 -0 -1 -1 -1 -1 -1 0 1 0 -1 -1 -1 -0 0 1 1 2 2 1 2 2 2 2 2 2 0 -1 -2 -2 -1
Height
5777 5778 5779 5780 5780 5781 5782 5782 5783 5784 5784 5785 5786 5786 5787 5788 5788 5789 5789 5789 5790 5790 5790 5790 5790 5790 5791 5791 5791 5791 5792 5792 5792 5792 5792 5792 5792 5791 5791 5791 5790 5790 5789 5789 5788 5788 5787 5787 5786 5786 5785 5785 5784 5783 5781 5780 5779 5778 5776 5776 5774 5773 5772 5771 5770 5768 5767 5766 5764
5775 5776 5777 5778 5778 5779 5780 5781 5781 5782 5782 5783 5784 5785 5785 5786 5786 5787 5787 5787 5787 5787 5787 5788 5788 5788 5788 5789 5789 5790 5790 5790 5790 5790 5790 5790 5790 5790 5789 5789 5788 5788 5787 5787 5786 5786 5785 5784 5784 5784 5783 5782 5781 5781 5779 5778 5776 5775 5774 5773 5772 5771 5770 5769 5767 5766 5765 5763 5762
5774 5774 5775 5776 5777 5777 5778 5779 5779 5780 5781 5781 5782 5783 5783 5784 5785 5785 5785 5786 5786 5786 5786 5785 5786 5786 5786 5786 5787 5787 5788 5788 5788 5788 5788 5788 5788 5787 5787 5787 5786 5786 5786 5785 5784 5783 5783 5782 5782 5781 5781 5780 5779 5778 5777 5775 5774 5773 5772 5771 5770 5768 5767 5766 5765 5764 5762 5761 5760
5772 5773 5774 5774 5775 5776 5776 5777 5778 5778 5779 5780 5780 5781 5782 5782 5783 5783 5783 5784 5784 5783 5783 5783 5783 5783 5784 5784 5785 5785 5786 5786 5786 5786 5786 5786 5786 5785 5785 5785 5784 5784 5784 5783 5782 5781 5781 5780 5780 5779 5778 5777 5776 5776 5774 5773 5771 5771 5769 5768 5767 5766 5765 5764 5762 5761 5760 5759 5757
5770 5771 5772 5773 5773 5774 5775 5775 5776 5777 5777 5778 5779 5779 5780 5781 5781 5781 5781 5782 5782 5781 5781 5781 5781 5781 5781 5782 5782 5783 5783 5783 5784 5784 5783 5783 5783 5783 5783 5783 5782 5782 5781 5781 5780 5779 5779 5778 5777 5776 5776 5775 5774 5773 5771 5770 5769 5768 5767 5766 5765 5764 5762 5761 5760 5759 5758 5756 5755
5769 5770 5770 5771 5772 5772 5773 5774 5774 5775 5776 5776 5777 5778 5778 5779 5779 5780 5780 5780 5780 5780 5779 5779 5779 5779 5779 5779 5780 5780 5781 5781 5781 5781 5781 5781 5781 5781 5781 5781 5780 5780 5779 5779 5778 5777 5776 5776 5775 5774 5773 5772 5771 5770 5769 5768 5767 5766 5765 5764 5762 5761 5760 5759 5758 5756 5755 5754 5753
5767 5768 5769 5769 5770 5771 5771 5772 5773 5773 5774 5775 5776 5776 5776 5777 5777 5778 5778 5778 5778 5777 5777 5777 5777 5777 5777 5777 5777 5778 5778 5778 5779 5779 5779 5779 5779 5779 5778 5778 5778 5777 5777 5776 5776 5775 5774 5774 5773 5772 5771 5770 5769 5768 5766 5766 5764 5763 5762 5761 5760 5759 5758 5757 5756 5754 5753 5751 5750
5765 5766 5767 5768 5768 5769 5770 5770 5771 5771 5772 5773 5774 5774 5774 5775 5775 5776 5776 5776 5776 5776 5775 5775 5775 5775 5775 5775 5775 5775 5776 5776 5776 5776 5776 5776 5776 5776 5776 5776 5776 5775 5775 5774 5773 5772 5772 5771 5771 5770 5769 5768 5766 5765 5764 5763 5762 5761 5760 5759 5758 5757 5756 5755 5753 5752 5751 5749 5748
5764 5764 5765 5766 5766 5767 5768 5768 5769 5770 5771 5771 5771 5772 5772 5773 5773 5773 5774 5774 5774 5773 5773 5773 5773 5773 5772 5772 5772 5772 5773 5773 5773 5774 5774 5774 5774 5774 5774 5774 5773 5773 5772 5771 5771 5770 5769 5769 5768 5767 5766 5765 5764 5763 5762 5761 5760 5759 5758 5757 5756 5755 5753 5752 5751 5750 5748 5747 5745
5762 5762 5763 5764 5765 5765 5766 5766 5767 5768 5769 5769 5769 5770 5770 5771 5771 5771 5771 5771 5771 5771 5771 5771 5771 5771 5770 5770 5770 5770 5770 5771 5771 5771 5771 5771 5771 5771 5771 5771 5771 5770 5769 5769 5768 5767 5766 5766 5765 5764 5763 5762 5761 5761 5759 5758 5757 5756 5755 5754 5753 5752 5751 5750 5749 5747 5746 5744 5742
5760 5760 5761 5762 5762 5763 5764 5765 5765 5766 5766 5767 5767 5767 5768 5768 5768 5769 5769 5769 5769 5769 5769 5769 5769 5768 5768 5768 5768 5768 5768 5768 5768 5768 5768 5768 5768 5768 5768 5768 5768 5767 5767 5766 5765 5765 5764 5763 5762 5761 5761 5760 5759 5758 5757 5756 5755 5754 5753 5752 5751 5750 5748 5747 5746 5744 5743 5741 5740
5757 5758 5759 5760 5760 5761 5762 5763 5763 5764 5764 5765 5765 5765 5766 5766 5766 5766 5766 5766 5766 5766 5766 5766 5766 5766 5766 5766 5765 5765 5765 5765 5765 5765 5765 5765 5766 5766 5766 5765 5765 5764 5764 5763 5762 5762 5761 5760 5760 5759 5758 5757 5756 5756 5755 5753 5752 5751 5751 5749 5748 5747 5746 5744 5743 5741 5740 5738 5737
5755 5756 5757 5757 5758 5759 5760 5761 5761 5761 5762 5762 5762 5763 5763 5763 5763 5764 5764 5764 5764 5764 5764 5764 5764 5764 5763 5763 5763 5763 5762 5762 5762 5762 5762 5762 5762 5762 5762 5762 5762 5761 5761 5760 5760 5759 5758 5757 5757 5756 5756 5755 5754 5753 5752 5751 5750 5749 5747 5746 5745 5744 5742 5741 5740 5738 5737 5736 5734
5753 5754 5755 5756 5756 5757 5758 5758 5759 5759 5760 5760 5760 5760 5760 5761 5761 5761 5761 5761 5761 5761 5761 5761 5761 5761 5761 5761 5760 5760 5760 5759 5759 5759 5759 5759 5759 5759 5759 5759 5759 5758 5758 5757 5757 5756 5756 5755 5754 5753 5753 5752 5751 5750 5749 5748 5747 5746 5745 5743 5742 5741 5739 5738 5736 5735 5734 5732 5731
5751 5752 5752 5753 5754 5755 5755 5756 5756 5757 5757 5757 5757 5757 5757 5758 5758 5758 5758 5759 5759 5759 5759 5759 5758 5758 5758 5758 5757 5757 5757 5756 5756 5756 5756 5756 5756 5756 5756 5756 5756 5756 5755 5755 5754 5753 5752 5752 5751 5750 5750 5749 5748 5747 5746 5745 5744 5743 5742 5741 5739 5738 5736 5735 5733 5732 5731 5730 5729
5749 5750 5750 5751 5752 5752 5753 5753 5754 5754 5754 5754 5754 5755 5755 5755 5755 5756 5756 5756 5756 5756 5756 5756 5756 5756 5755 5755 5755 5754 5754 5754 5753 5753 5753 5753 5753 5753 5753 5753 5753 5752 5752 5752 5751 5750 5750 5749 5748 5747 5746 5746 5745 5744 5743 5742 5741 5740 5739 5738 5736 5735 5733 5732 5731 5729 5728 5727 5726
5746 5747 5748 5748 5749 5750 5751 5751 5751 5751 5751 5751 5752 5752 5752 5752 5753 5753 5753 5753 5753 5753 5753 5753 5753 5753 5752 5752 5752 5751 5751 5751 5751 5750 5750 5750 5750 5750 5750 5750 5750 5749 5749 5749 5748 5747 5746 5746 5745 5744 5743 5743 5742 5741 5740 5739 5738 5737 5736 5735 5733 5732 5730 5729 5727 5726 5725 5724 5723
5744 5745 5745 5746 5746 5747 5748 5748 5748 5749 5749 5749 5749 5749 5750 5750 5750 5750 5750 5750 5751 5751 5751 5750 5750 5750 5750 5749 5749 5749 5748 5748 5747 5747 5747 5747 5747 5747 5746 5746 5746 5746 5746 5746 5745 5744 5743 5743 5742 5741 5741 5740 5739 5738 5737 5736 5736 5735 5733 5732 5730 5729 5727 5726 5725 5723 5722 5721 5720
5741 5742 5743 5743 5744 5744 5745 5745 5746 5746 5746 5746 5746 5747 5747 5747 5747 5747 5747 5748 5748 5748 5748 5747 5747 5747 5747 5746 5746 5746 5745 5745 5744 5744 5744 5744 5744 5744 5744 5744 5744 5743 5743 5742 5742 5741 5740 5740 5739 5738 5737 5737 5736 5735 5735 5734 5733 5731 5730 5729 5727 5726 5725 5723 5722 5721 5720 5719 5717
5739 5740 5740 5741 5741 5741 5742 5742 5743 5743 5743 5744 5744 5744 5744 5745 5745 5745 5745 5745 5745 5745 5745 5745 5745 5745 5744 5744 5744 5743 5742 5742 5741 5741 5741 5741 5741 5741 5741 5741 5741 5740 5740 5739 5739 5738 5737 5737 5736 5736 5735 5734 5733 5733 5732 5731 5730 5729 5727 5726 5725 5723 5722 5720 5719 5718 5717 5716 5715
5736 5737 5737 5738 5738 5739 5739 5740 5740 5740 5741 5741 5741 5741 5742 5742 5742 5742 5742 5742 5742 5742 5742 5742 5742 5742 5742 5741 5741 5741 5740 5739 5739 5738 5738 5737 5737 5737 5737 5737 5737 5737 5736 5736 5736 5735 5735 5734 5733 5733 5732 5731 5731 5730 5729 5728 5727 5726 5724 5723 5722 5720 5719 5717 5716 5715 5714 5713 5712
5734 5735 5735 5736 5736 5736 5736 5737 5737 5737 5738 5738 5738 5739 5739 5739 5739 5739 5739 5739 5739 5740 5740 5740 5740 5740 5739 5739 5738 5738 5737 5737 5736 5736 5735 5735 5734 5734 5734 5734 5734 5734 5733 5733 5732 5732 5731 5731 5730 5730 5729 5729 5728 5727 5726 5726 5724 5723 5721 5720 5719 5717 5716 5715 5714 5713 5711 5711 5709
5731 5732 5733 5733 5734 5734 5734 5734 5735 5735 5735 5736 5736 5736 5736 5736 5736 5736 5736 5736 5736 5737 5737 5737 5737 5737 5736 5736 5736 5735 5735 5734 5733 5733 5732 5731 5731 5731 5731 5731 5731 5731 5730 5730 5730 5729 5728 5728 5727 5727 5726 5726 5726 5725 5724 5723 5721 5720 5719 5717 5716 5715 5713 5712 5711 5710 5709 5708 5707
5729 5730 5730 5731 5731 5731 5732 5732 5732 5732 5733 5733 5733 5733 5733 5733 5733 5733 5733 5734 5734 5734 5734 5734 5734 5734 5734 5733 5733 5732 5732 5731 5731 5730 5730 5729 5728 5728 5728 5728 5727 5727 5727 5727 5726 5726 5726 5725 5725 5724 5724 5724 5723 5722 5721 5720 5719 5717 5716 5715 5713 5712 5711 5710 5709 5707 5706 5705 5704
5726 5727 5727 5728 5729 5729 5729 5730 5730 5730 5730 5731 5731 5731 5731 5731 5731 5731 5731 5731 5731 5731 5731 5731 5731 5731 5731 5731 5730 5730 5729 5729 5728 5728 5727 5726 5726 5726 5725 5725 5725 5725 5724 5724 5724 5723 5723 5723 5722 5722 5721 5721 5720 5719 5718 5717 5716 5714 5713 5712 5711 5709 5708 5707 5706 5705 5704 5703 5702
5724 5724 5725 5725 5726 5726 5726 5727 5727 5727 5728 5728 5728 5728 5728 5728 5728 5728 5728 5728 5728 5728 5728 5728 5728 5728 5728 5728 5727 5727 5726 5726 5726 5725 5725 5724 5724 5723 5723 5723 5722 5722 5722 5721 5721 5721 5721 5720 5720 5719 5719 5718 5717 5716 5715 5714 5713 5711 5710 5709 5708 5707 5706 5704 5703 5702 5701 5701 5699
5721 5722 5722 5722 5723 5723 5724 5724 5724 5725 5725 5725 5726 5726 5726 5726 5726 5726 5726 5726 5726 5726 5726 5726 5726 5725 5725 5725 5725 5724 5724 5723 5723 5723 5722 5722 5722 5721 5721 5721 5721 5720 5719 5719 5718 5718 5718 5717 5717 5717 5716 5716 5714 5713 5712 5711 5710 5709 5708 5706 5705 5704 5703 5702 5701 5700 5699 5698 5697
5719 5719 5720 5720 5721 5721 5721 5721 5722 5722 5722 5722 5723 5723 5723 5723 5723 5723 5723 5723 5723 5723 5723 5723 5722 5722 5722 5722 5721 5721 5721 5721 5721 5720 5720 5720 5720 5720 5719 5719 5718 5717 5717 5716 5716 5715 5715 5715 5714 5714 5713 5712 5711 5710 5709 5708 5707 5706 5705 5704 5703 5702 5701 5700 5699 5698 5697 5695 5694
5716 5716 5717 5717 5718 5718 5718 5719 5719 5719 5720 5720 5720 5720 5720 5720 5720 5721 5720 5720 5720 5720 5720 5720 5720 5719 5719 5719 5719 5719 5718 5718 5718 5718 5718 5718 5717 5717 5717 5716 5716 5715 5714 5713 5713 5713 5712 5712 5711 5711 5710 5709 5708 5707 5706 5706 5705 5704 5702 5701 5701 5700 5699 5698 5697 5696 5694 5693 5691
5714 5714 5714 5715 5715 5716 5716 5716 5716 5716 5717 5717 5717 5717 5717 5717 5717 5717 5717 5717 5717 5717 5717 5717 5716 5716 5716 5716 5716 5716 5716 5716 5715 5715 5715 5715 5715 5715 5714 5713 5713 5712 5711 5711 5710 5710 5710 5709 5708 5708 5707 5706 5705 5704 5703 5702 5701 5701 5700 5699 5698 5697 5696 5696 5694 5693 5691 5690 5689
5711 5711 5712 5712 5712 5713 5713 5713 5714 5714 5714 5714 5714 5715 5715 5715 5715 5715 5715 5714 5714 5714 5714 5714 5714 5714 5713 5713 5713 5713 5713 5713 5712 5712 5712 5712 5712 5711 5711 5710 5710 5709 5708 5708 5708 5707 5707 5706 5706 5705 5704 5703 5702 5701 5700 5699 5698 5697 5697 5696 5695 5695 5693 5692 5691 5690 5688 5687 5686
5708 5708 5709 5709 5709 5710 5710 5711 5711 5711 5711 5711 5711 5712 5712 5712 5712 5712 5711 5711 5711 5711 5711 5711 5711 5711 5711 5711 5711 5710 5710 5710 5709 5709 5709 5709 5708 5708 5708 5707 5706 5706 5706 5705 5705 5704 5704 5703 5702 5701 5701 5700 5699 5698 5697 5696 5695 5694 5694 5693 5692 5691 5690 5689 5688 5687 5686 5685 5684
5706 5706 5706 5706 5706 5707 5707 5707 5708 5708 5708 5708 5709 5709 5709 5709 5709 5709 5709 5709 5708 5708 5708 5708 5708 5708 5708 5707 5707 5707 5707 5706 5706 5706 5706 5705 5705 5705 5704 5704 5703 5703 5702 5702 5701 5701 5701 5700 5699 5698 5697 5696 5696 5695 5693 5692 5692 5691 5690 5689 5689 5688 5687 5686 5685 5684 5683 5682 5681
5703 5703 5703 5703 5703 5704 5704 5704 5705 5705 5705 5705 5705 5706 5706 5706 5706 5706 5706 5705 5705 5705 5705 5705 5705 5705 5704 5704 5704 5704 5703 5703 5703 5702 5702 5702 5701 5701 5701 5700 5700 5700 5699 5699 5698 5698 5697 5697 5696 5695 5694 5693 5692 5691 5690 5689 5689 5688 5687 5686 5685 5684 5684 5683 5682 5681 5681 5680 5679
5700 5700 5700 5700 5701 5701 5701 5701 5701 5702 5702 5702 5702 5702 5702 5702 5702 5702 5702 5702 5701 5701 5701 5701 5701 5701 5700 5700 5700 5700 5700 5699 5699 5699 5699 5698 5698 5698 5697 5697 5696 5696 5696 5695 5695 5694 5694 5693 5692 5692 5691 5690 5689 5688 5687 5686 5686 5685 5684 5683 5682 5681 5681 5680 5679 5679 5678 5677 5676
5697 5697 5697 5697 5698 5698 5698 5698 5699 5699 5699 5699 5699 5699 5699 5699 5698 5698 5698 5698 5698 5697 5697 5697 5697 5697 5697 5696 5696 5696 5696 5696 5696 5695 5695 5695 5695 5695 5694 5693 5693 5692 5692 5692 5691 5691 5691 5690 5689 5688 5687 5687 5686 5686 5685 5684 5683 5682 5681 5680 5680 5679 5678 5677 5677 5676 5675 5674 5673
5694 5695 5695 5695 5695 5695 5696 5696 5696 5696 5696 5696 5696 5696 5696 5695 5695 5695 5694 5694 5694 5694 5694 5694 5694 5694 5694 5694 5694 5693 5693 5693 5692 5692 5692 5692 5692 5691 5691 5690 5690 5689 5689 5688 5688 5688 5688 5688 5686 5685 5685 5684 5683 5683 5682 5681 5681 5680 5679 5678 5677 5676 5676 5675 5674 5673 5673 5672 5671
5692 5692 5692 5692 5692 5692 5693 5693 5693 5693 5693 5693 5693 5693 5693 5692 5692 5692 5691 5691 5691 5691 5691 5691 5691 5691 5691 5691 5691 5690 5690 5690 5690 5690 5689 5689 5690 5689 5689 5688 5687 5687 5686 5686 5686 5686 5686 5686 5684 5683 5682 5681 5681 5680 5680 5679 5678 5677 5677 5676 5675 5674 5673 5673 5672 5671 5670 5669 5668
5690 5690 5690 5690 5690 5690 5690 5690 5690 5691 5691 5691 5690 5690 5690 5690 5690 5689 5689 5689 5689 5689 5689 5689 5689 5688 5688 5688 5688 5688 5688 5687 5687 5687 5687 5687 5687 5687 5687 5686 5685 5684 5684 5684 5684 5684 5683 5683 5681 5681 5680 5679 5679 5678 5677 5677 5676 5675 5675 5674 5673 5672 5671 5671 5670 5669 5668 5667 5666
5687 5687 5687 5687 5687 5687 5687 5688 5688 5688 5688 5688 5688 5688 5688 5688 5687 5687 5687 5687 5686 5686 5686 5686 5686 5686 5686 5686 5686 5686 5685 5685 5685 5685 5685 5685 5685 5684 5684 5683 5682 5682 5682 5682 5681 5681 5680 5679 5679 5678 5678 5677 5677 5676 5676 5675 5674 5673 5673 5672 5671 5671 5670 5669 5668 5667 5666 5664 5663
5685 5685 5685 5685 5685 5685 5685 5685 5685 5685 5686 5686 5685 5685 5685 5685 5685 5684 5684 5684 5684 5684 5684 5684 5684 5684 5684 5683 5683 5683 5683 5683 5683 5682 5682 5682 5682 5681 5681 5681 5680 5680 5679 5679 5679 5678 5678 5677 5676 5676 5675 5675 5674 5674 5673 5673 5672 5671 5671 5670 5669 5668 5667 5666 5665 5664 5663 5662 5661